Location: La Oliva
(42.2466°N, 2.9955°E)
Time: 10:51:24
(UTC+00:00)

Cosmos 407 Rocket - Pass Details

Date: 22 April 2021
Orbit: 743 x 787 km, 74.0° (Epoch: 10 May)

Event Time Altitude Azimuth Distance (km) Brightness Sun altitude
Rises 19:57:55 0° 194° (SSW) 3,169 6.5 -14.3°
Reaches altitude 10° 20:00:15 10° 193° (SSW) 2,252 5.7 -14.7°
Maximum altitude 20:05:20 77° 108° (ESE) 772 3.3 -15.4°
Drops below altitude 10° 20:10:31 10° 23° (NNE) 2,288 6.1 -16.2°
Sets 20:12:54 0° 22° (NNE) 3,224 6.9 -16.6°
